カタログに戻る

STARLINK-30125

運用中通信VLEO
NORAD 56701·PAYLOAD·🇺🇸 United States

打ち上げ May 19, 2023 から Cape Canaveral Space Force Station

Loading…

次のパス (今後24時間)

TLE

最新Source: CelesTrak SupGP

元期: Sep 15, 2026, 02:04 UTC

1 56701C 23067P   26258.08659722  .00016209  00000+0  58723-3 0  2582
2 56701  43.0008 281.4713 0001664 262.1840 169.9679 15.27562941    12

AllMySatでSTARLINK-30125をリアルタイム追跡

Download on the App Store